sat.trackr.live / text

‹ back to catalog

GEESAT-4 07

NORAD 65125 · 2025-170G

PAYLOAD ACTIVE UNKNOWN

§ Identity

Operator
Country
PRC
Launch date
2025-08-08
Launch site
YSLA
Launch vehicle
Mass (kg)
RCS (m²)

External: N2YO · Heavens-Above · Gunter

§ Orbital elements

Epoch: 2026-09-21T21:12:39.214080Z

Period
97.02 min
Inclination
49.9913°
Eccentricity
0.0017895
Mean motion
14.84254453 rev/d
Perigee alt
603.4 km
Apogee alt
628.4 km
Semi-major
6,994.1 km
B*
1.4058e-4
RAAN
85.6872°
Arg perigee
65.5756°
Mean anomaly
294.7047°
Rev number
6,079

§ Raw data

GEESAT-4 071 65125U 25170G   26264.88378720  .00000961  00000+0  14058-3 0  99932 65125  49.9913  85.6872 0017895  65.5756 294.7047 14.84254453 60791

JSON: /api/v1/satellites/65125 · /tle

For live sub-satellite position, see the globe view (requires WebGL).

§ Visibility from observer

Set your observer location to see the next 7 days of passes ≥ 10°. The values pass through the URL so the page stays shareable.

No JS? Fill the form by hand. The geolocation button needs JavaScript.